| time (UTC) | temp F | wind direction | speed MPH | gust MPH | rain 1hr in | rain 24hr in | rain mn in | humidity % | barometer mb |
| 20260504171544 | 77 | 152 | 5.0 | 12.0 | 0.00 | 0.00 | 0.00 | 66 | 1012.9 |
| 20260504170104 | 77 | 174 | 6.0 | 15.0 | 0.00 | 0.00 | 0.00 | 67 | 1013.0 |
| 20260504081546 | 63 | 160 | 4.0 | 8.0 | 0.00 | 0.00 | 0.00 | 78 | 1014.5 |
| 20260504050007 | 66 | 136 | 6.0 | 12.0 | 0.00 | 0.00 | 0.00 | 72 | 1016.4 |
| 20260504044525 | 66 | 210 | 7.0 | 12.0 | 0.00 | 0.00 | 0.00 | 72 | 1016.5 |
| 20260504043048 | 66 | 202 | 5.0 | 12.0 | 0.00 | 0.00 | 0.00 | 71 | 1016.6 |
| 20260504041508 | 67 | 172 | 7.0 | 13.0 | 0.00 | 0.00 | 0.00 | 69 | 1016.7 |
| 20260504040034 | 67 | 127 | 6.0 | 14.0 | 0.00 | 0.00 | 0.00 | 68 | 1016.8 |
| 20260504034553 | 67 | 165 | 5.0 | 11.0 | 0.00 | 0.00 | 0.00 | 67 | 1016.9 |
| 20260504033006 | 68 | 156 | 6.0 | 13.0 | 0.00 | 0.00 | 0.00 | 65 | 1016.8 |
| 20260504031524 | 68 | 153 | 5.0 | 10.0 | 0.00 | 0.00 | 0.00 | 64 | 1016.6 |
| 20260504030042 | 68 | 153 | 5.0 | 8.0 | 0.00 | 0.00 | 0.00 | 63 | 1016.5 |
| 20260504024559 | 69 | 179 | 4.0 | 8.0 | 0.00 | 0.00 | 0.00 | 62 | 1016.7 |
| 20260504023009 | 70 | 160 | 4.0 | 11.0 | 0.00 | 0.00 | 0.00 | 60 | 1016.6 |
| 20260504021525 | 70 | 187 | 5.0 | 10.0 | 0.00 | 0.00 | 0.00 | 59 | 1016.3 |
| 20260504020041 | 71 | 193 | 6.0 | 11.0 | 0.00 | 0.00 | 0.00 | 58 | 1016.3 |
| 20260504014600 | 71 | 171 | 4.0 | 7.0 | 0.00 | 0.00 | 0.00 | 56 | 1015.9 |
| 20260504013029 | 71 | 219 | 1.0 | 4.0 | 0.00 | 0.00 | 0.00 | 53 | 1015.7 |
| 20260504011554 | 72 | 108 | 1.0 | 3.0 | 0.00 | 0.00 | 0.00 | 51 | 1015.6 |
| 20260504010002 | 73 | 198 | 0.0 | 2.0 | 0.00 | 0.00 | 0.00 | 48 | 1015.7 |
| 20260504004521 | 75 | 177 | 0.0 | 4.0 | 0.00 | 0.00 | 0.00 | 46 | 1015.6 |
| 20260504003056 | 75 | 174 | 1.0 | 7.0 | 0.00 | 0.00 | 0.00 | 44 | 1015.7 |
| 20260504001511 | 76 | 173 | 4.0 | 9.0 | 0.00 | 0.00 | 0.00 | 41 | 1015.7 |
| 20260504000029 | 77 | 151 | 4.0 | 8.0 | 0.00 | 0.00 | 0.00 | 40 | 1016.0 |
| 20260503234522 | 77 | 160 | 2.0 | 9.0 | 0.00 | 0.00 | 0.00 | 40 | 1016.3 |
| 20260503233047 | 77 | 176 | 3.0 | 10.0 | 0.00 | 0.00 | 0.00 | 40 | 1016.3 |
| 20260503231503 | 77 | 11 | 4.0 | 9.0 | 0.00 | 0.00 | 0.00 | 39 | 1016.4 |
| 20260503230025 | 78 | 150 | 3.0 | 10.0 | 0.00 | 0.00 | 0.00 | 37 | 1016.3 |
| 20260503224548 | 78 | 121 | 4.0 | 10.0 | 0.00 | 0.00 | 0.00 | 38 | 1016.3 |
| 20260503223101 | 78 | 161 | 4.0 | 8.0 | 0.00 | 0.00 | 0.00 | 37 | 1016.6 |
| 20260503221516 | 78 | 177 | 4.0 | 9.0 | 0.00 | 0.00 | 0.00 | 38 | 1016.9 |
| 20260503220045 | 78 | 169 | 5.0 | 10.0 | 0.00 | 0.00 | 0.00 | 37 | 1017.3 |
| 20260503214504 | 78 | 164 | 3.0 | 12.0 | 0.00 | 0.00 | 0.00 | 37 | 1017.4 |
| 20260503213032 | 78 | 143 | 5.0 | 11.0 | 0.00 | 0.00 | 0.00 | 38 | 1017.8 |
| 20260503211557 | 78 | 160 | 2.0 | 8.0 | 0.00 | 0.00 | 0.00 | 38 | 1017.8 |
| 20260503210055 | 78 | 155 | 3.0 | 8.0 | 0.00 | 0.00 | 0.00 | 41 | 1018.3 |
| 20260503204551 | 78 | 206 | 4.0 | 10.0 | 0.00 | 0.00 | 0.00 | 39 | 1018.7 |
| 20260503203047 | 77 | 160 | 0.0 | 9.0 | 0.00 | 0.00 | 0.00 | 39 | 1019.0 |
| 20260503201603 | 78 | 160 | 4.0 | 10.0 | 0.00 | 0.00 | 0.00 | 43 | 1019.2 |
| 20260503200016 | 77 | 176 | 0.0 | 7.0 | 0.00 | 0.00 | 0.00 | 41 | 1019.6 |
| 20260503194535 | 77 | 149 | 4.0 | 9.0 | 0.00 | 0.00 | 0.00 | 43 | 1019.7 |
| 20260503193052 | 77 | 146 | 3.0 | 10.0 | 0.00 | 0.00 | 0.00 | 41 | 1019.8 |
| 20260503191509 | 76 | 160 | 4.0 | 9.0 | 0.00 | 0.00 | 0.00 | 40 | 1020.0 |
| 20260503190022 | 76 | 148 | 4.0 | 11.0 | 0.00 | 0.00 | 0.00 | 44 | 1020.4 |
| 20260503184558 | 76 | 144 | 4.0 | 8.0 | 0.00 | 0.00 | 0.00 | 43 | 1020.6 |
| 20260503183046 | 76 | 158 | 1.0 | 7.0 | 0.00 | 0.00 | 0.00 | 44 | 1020.8 |
| 20260503181609 | 76 | 172 | 2.0 | 7.0 | 0.00 | 0.00 | 0.00 | 43 | 1021.1 |
| 20260503180029 | 75 | 173 | 3.0 | 7.0 | 0.00 | 0.00 | 0.00 | 44 | 1021.5 |
| 20260503174551 | 75 | 183 | 2.0 | 10.0 | 0.00 | 0.00 | 0.00 | 46 | 1021.7 |
| 20260503173131 | 74 | 172 | 3.0 | 8.0 | 0.00 | 0.00 | 0.00 | 49 | 1022.1 |